Location: Zagreb
(45.8000°N, 16.0000°E)
Time: 08:52:57
(UTC+02:00)

Courier 1B - Pass Details

Date: 14 August 2020
Orbit: 962 x 1209 km, 28.3° (Epoch: 27 September)

Event Time Altitude Azimuth Distance (km) Brightness Sun altitude
Rises 17:22:28 0° 212° (SSW) 4,077 11.3 27.1°
Reaches altitude 10° 17:27:14 10° 187° (S) 3,081 10.4 26.2°
Maximum altitude 17:30:26 13° 162° (SSE) 2,824 9.9 25.7°
Drops below altitude 10° 17:33:34 10° 137° (SE) 3,019 9.8 25.2°
Sets 17:38:08 0° 111° (ESE) 3,923 10.2 24.4°
